FW7926 Weather Reports


Display with metric or nautical units.
time (UTC)temp
F
wind
direction
speed
MPH
gust
MPH
rain 1hr
in
rain 24hr
in
rain mn
in
humidity
%
barometer
mb
20260906103800 71 67 3.0 8.0 0.00 0.00 0.00 95 1016.1
20260906103254 71 74 3.0 8.0 0.00 0.00 0.00 95 1016.3
20260906102749 71 64 3.0 8.0 0.00 0.00 0.00 95 1016.2
20260906102243 71 88 4.0 10.0 0.00 0.00 0.00 95 1016.0
20260906101736 71 81 3.0 10.0 0.00 0.00 0.00 95 1016.0
20260906101457 71 120 3.0 11.0 0.00 0.00 0.00 95 1016.0
20260906100725 71 58 4.0 11.0 0.00 0.00 0.00 95 1016.0
20260906100504 71 81 4.0 10.0 0.00 0.00 0.00 94 1016.0
20260906095713 71 70 4.0 9.0 0.00 0.00 0.00 94 1016.0
20260906095214 71 66 3.0 9.0 0.00 0.00 0.00 94 1015.9
20260906094709 71 55 3.0 8.0 0.00 0.00 0.00 94 1016.1
20260906094206 71 57 3.0 8.0 0.00 0.00 0.00 94 1016.0
20260906093715 71 92 3.0 8.0 0.00 0.00 0.00 94 1015.9
20260906093706 71 60 3.0 8.0 0.00 0.00 0.00 94 1015.9
20260906092931 71 70 3.0 8.0 0.00 0.00 0.00 94 1015.8
20260906092203 71 60 4.0 11.0 0.00 0.00 0.00 93 1015.8
20260906091659 71 49 3.0 11.0 0.00 0.00 0.00 93 1015.7
20260906091201 71 91 3.0 11.0 0.00 0.00 0.00 93 1015.8
20260906090701 71 93 3.0 10.0 0.00 0.00 0.00 93 1015.7
20260906090200 71 79 3.0 10.0 0.00 0.00 0.00 93 1015.7
20260906085931 71 80 4.0 9.0 0.00 0.00 0.00 93 1015.7
20260906085200 71 67 4.0 9.0 0.00 0.00 0.00 93 1015.7
20260906084700 71 51 3.0 8.0 0.00 0.00 0.00 93 1015.7
20260906084202 71 73 4.0 9.0 0.00 0.00 0.00 92 1015.7
20260906083922 71 147 5.0 10.0 0.00 0.00 0.00 92 1015.8
20260906083420 71 105 4.0 10.0 0.00 0.00 0.00 92 1015.8
20260906082656 71 65 4.0 11.0 0.00 0.00 0.00 92 1015.9
20260906082420 71 78 5.0 11.0 0.00 0.00 0.00 92 1015.9
20260906081657 71 90 5.0 9.0 0.00 0.00 0.00 91 1015.9
20260906081156 72 107 4.0 10.0 0.00 0.00 0.00 91 1015.9
20260906080657 72 85 4.0 10.0 0.00 0.00 0.00 91 1015.9
20260906080157 72 102 4.0 10.0 0.00 0.00 0.00 91 1015.8
20260906075657 72 80 4.0 15.0 0.00 0.00 0.00 91 1015.8
20260906075156 72 93 5.0 15.0 0.00 0.00 0.00 90 1015.9
20260906074658 72 101 5.0 16.0 0.00 0.00 0.00 90 1015.7
20260906074158 73 83 4.0 16.0 0.00 0.00 0.00 90 1015.7
20260906073655 73 88 5.0 10.0 0.00 0.00 0.00 90 1015.7
20260906073156 73 107 5.0 11.0 0.00 0.00 0.00 90 1015.9
20260906072656 73 113 4.0 11.0 0.00 0.00 0.00 90 1015.8
20260906072156 73 85 3.0 10.0 0.00 0.00 0.00 89 1015.7
20260906071913 74 50 3.0 7.0 0.00 0.00 0.00 89 1015.6
20260906071155 74 51 4.0 10.0 0.00 0.00 0.00 89 1015.8
20260906070655 74 105 4.0 10.0 0.00 0.00 0.00 89 1015.7
20260906070636 74 70 3.0 8.0 0.00 0.00 0.00 89 1015.7
20260906065655 74 97 3.0 9.0 0.00 0.00 0.00 89 1015.8
20260906065157 74 121 3.0 9.0 0.00 0.00 0.00 88 1015.8
20260906064654 75 66 4.0 11.0 0.00 0.00 0.00 88 1015.8
20260906064152 75 59 4.0 11.0 0.00 0.00 0.00 88 1015.8
20260906063652 75 45 4.0 10.0 0.00 0.00 0.00 88 1015.8
20260906063146 75 73 3.0 10.0 0.00 0.00 0.00 88 1015.8
20260906062640 75 58 3.0 8.0 0.00 0.00 0.00 88 1015.6
20260906062135 75 76 4.0 9.0 0.00 0.00 0.00 87 1015.6
20260906061628 76 351 5.0 9.0 0.00 0.00 0.00 87 1015.6
20260906061122 76 74 5.0 10.0 0.00 0.00 0.00 86 1015.5
20260906060616 76 123 5.0 10.0 0.00 0.00 0.00 86 1015.5
20260906060335 76 110 4.0 9.0 0.00 0.00 0.00 86 1015.5
20260906055604 76 93 4.0 10.0 0.00 0.00 0.00 86 1015.5
20260906055059 77 114 4.0 10.0 0.00 0.00 0.00 86 1015.5
20260906054552 77 102 4.0 12.0 0.00 0.00 0.00 85 1015.6
20260906054313 77 89 5.0 12.0 0.00 0.00 0.00 85 1015.5
20260906053757 77 56 5.0 12.0 0.00 0.00 0.00 85 1015.3
20260906053048 77 67 4.0 12.0 0.00 0.00 0.00 85 1015.3
20260906052759 77 111 4.0 10.0 0.00 0.00 0.00 85 1015.3
20260906052023 78 97 3.0 10.0 0.00 0.00 0.00 85 1015.1
20260906051516 78 98 3.0 10.0 0.00 0.00 0.00 85 1015.4
20260906051010 78 69 4.0 10.0 0.00 0.00 0.00 85 1015.4
20260906050517 78 80 4.0 9.0 0.00 0.00 0.00 85 1015.4
20260906050218 78 130 4.0 9.0 0.00 0.00 0.00 84 1015.4
20260906045721 78 116 4.0 10.0 0.00 0.00 0.00 84 1015.4
20260906044948 79 80 5.0 12.0 0.00 0.00 0.00 84 1015.3
20260906044535 79 6 5.0 12.0 0.00 0.00 0.00 84 1015.3
20260906043430 79 60 4.0 11.0 0.00 0.00 0.00 84 1015.2
20260906042924 80 116 4.0 11.0 0.00 0.00 0.00 83 1015.2
20260906042639 80 93 5.0 11.0 0.00 0.00 0.00 83 1015.0
20260906041913 80 106 6.0 13.0 0.00 0.00 0.00 83 1015.0
20260906041406 80 72 6.0 13.0 0.00 0.00 0.00 83 1015.0
20260906040903 80 67 6.0 11.0 0.00 0.00 0.00 83 1015.0
20260906040403 81 96 6.0 12.0 0.00 0.00 0.00 83 1014.9
20260906040130 81 74 6.0 15.0 0.00 0.00 0.00 83 1015.0
20260906035403 81 89 6.0 15.0 0.00 0.00 0.00 83 1014.9
20260906034904 82 128 6.0 15.0 0.00 0.00 0.00 83 1014.7
20260906034847 82 57 7.0 16.0 0.00 0.00 0.00 82 1014.7
20260906034123 82 70 8.0 16.0 0.00 0.00 0.00 82 1014.8
20260906033404 83 105 7.0 16.0 0.00 0.00 0.00 81 1014.7
20260906032903 83 76 5.0 16.0 0.00 0.00 0.00 81 1014.5
20260906032123 84 68 5.0 11.0 0.00 0.00 0.00 80 1014.4
20260906031401 84 45 5.0 11.0 0.00 0.00 0.00 80 1014.5
20260906030902 84 70 5.0 12.0 0.00 0.00 0.00 80 1014.4
20260906030359 84 92 5.0 12.0 0.00 0.00 0.00 80 1014.5
20260906025857 84 87 4.0 10.0 0.00 0.00 0.00 80 1014.5
20260906025358 84 72 4.0 8.0 0.00 0.00 0.00 81 1014.5
20260906024857 83 66 3.0 8.0 0.00 0.00 0.00 81 1014.2
20260906024357 83 82 3.0 7.0 0.00 0.00 0.00 82 1014.2
20260906023856 83 49 2.0 7.0 0.00 0.00 0.00 83 1014.1
20260906023357 83 91 1.0 6.0 0.00 0.00 0.00 82 1014.2
20260906022857 83 103 0.0 5.0 0.00 0.00 0.00 82 1014.0
20260906022628 83 85 0.0 0.0 0.00 0.00 0.00 82 1013.8
20260906021852 83 67 0.0 0.0 0.00 0.00 0.00 81 1014.0
20260906021345 83 67 0.0 0.0 0.00 0.00 0.00 81 1013.8
20260906020839 83 67 0.0 0.0 0.00 0.00 0.00 80 1013.7
20260906020334 84 67 0.0 0.0 0.00 0.00 0.00 80 1013.7
20260906015828 84 67 0.0 0.0 0.00 0.00 0.00 80 1013.6
20260906015322 84 67 0.0 0.0 0.00 0.00 0.00 79 1013.5
20260906014815 84 86 0.0 0.0 0.00 0.00 0.00 79 1013.4
20260906014537 84 53 0.0 0.0 0.00 0.00 0.00 78 1013.5
20260906013803 85 74 0.0 0.0 0.00 0.00 0.00 78 1013.5
20260906013257 85 107 0.0 0.0 0.00 0.00 0.00 77 1013.6
20260906013024 85 93 0.0 0.0 0.00 0.00 0.00 77 1013.4
20260906012245 85 16 0.0 0.0 0.00 0.00 0.00 76 1013.4
20260906011740 86 125 0.0 0.0 0.00 0.00 0.00 76 1013.2
20260906011234 86 92 0.0 0.0 0.00 0.00 0.00 76 1013.2
20260906010955 86 86 0.0 2.0 0.00 0.00 0.00 75 1013.2
20260906010221 86 22 0.0 2.0 0.00 0.00 0.00 75 1013.3
20260906005716 87 51 0.0 4.0 0.00 0.00 0.00 74 1013.1
20260906005428 87 64 0.0 4.0 0.00 0.00 0.00 74 1013.1
20260906004703 87 78 0.0 0.0 0.00 0.00 0.00 73 1013.1
20260906004429 88 83 0.0 0.0 0.00 0.00 0.00 72 1013.3
20260906004142 88 91 0.0 4.0 0.00 0.00 0.00 72 1013.1
20260906003146 89 94 0.0 4.0 0.00 0.00 0.00 71 1013.1
20260906002639 89 31 0.0 0.0 0.00 0.00 0.00 71 1013.1
20260906002146 89 32 0.0 0.0 0.00 0.00 0.00 70 1013.0
20260906001641 90 57 0.0 1.0 0.00 0.00 0.00 69 1013.0
20260906001121 90 49 0.0 2.0 0.00 0.00 0.00 69 1013.0
20260906000616 91 20 0.0 2.0 0.00 0.00 0.00 69 1013.0
20260906000344 91 70 0.0 0.0 0.00 0.00 0.00 68 1013.1
20260905235603 91 82 0.0 0.0 0.00 0.00 0.00 68 1013.0
20260905235549 91 74 0.0 0.0 0.00 0.00 0.00 67 1013.0
20260905234551 92 101 0.0 0.0 0.00 0.00 0.00 66 1013.0
20260905234045 92 106 0.0 0.0 0.00 0.00 0.00 65 1013.0
20260905233813 92 62 0.0 0.0 0.00 0.00 0.00 65 1013.0
20260905233303 93 78 0.0 0.0 0.00 0.00 0.00 64 1013.0
20260905232528 93 30 0.0 0.0 0.00 0.00 0.00 63 1013.0
20260905232021 94 74 0.0 0.0 0.00 0.00 0.00 63 1012.9
20260905231516 94 82 0.0 2.0 0.00 0.00 0.00 62 1012.8
20260905231009 95 57 1.0 4.0 0.00 0.00 0.00 60 1012.8
20260905230503 95 31 1.0 8.0 0.00 0.00 0.00 59 1012.9
20260905230444 96 52 1.0 8.0 0.00 0.00 0.00 57 1012.8
20260905225451 97 353 0.0 2.0 0.00 0.00 0.00 56 1013.0
20260905224945 97 70 0.0 4.0 0.00 0.00 0.00 55 1012.9
20260905224440 97 51 1.0 5.0 0.00 0.00 0.00 56 1012.9
20260905223940 97 29 1.0 5.0 0.00 0.00 0.00 55 1012.7
20260905223441 97 68 2.0 6.0 0.00 0.00 0.00 55 1012.7
20260905223205 98 77 2.0 8.0 0.00 0.00 0.00 54 1012.7
20260905222928 98 19 2.0 8.0 0.00 0.00 0.00 52 1012.8
20260905221938 98 344 1.0 9.0 0.00 0.00 0.00 52 1012.8
20260905221658 98 102 2.0 9.0 0.00 0.00 0.00 52 1012.7
20260905220942 98 12 2.0 9.0 0.00 0.00 0.00 52 1012.7
20260905220442 98 351 3.0 9.0 0.00 0.00 0.00 52 1012.7
20260905215706 97 10 2.0 8.0 0.00 0.00 0.00 54 1012.6
20260905214938 97 24 2.0 5.0 0.00 0.00 0.00 56 1012.7
20260905214439 96 74 1.0 5.0 0.00 0.00 0.00 56 1012.7
20260905213939 95 222 1.0 5.0 0.00 0.00 0.00 57 1012.8
20260905213437 95 41 1.0 5.0 0.00 0.00 0.00 58 1012.8
20260905213157 94 90 0.0 0.0 0.00 0.00 0.00 58 1012.9
20260905212436 94 208 0.0 3.0 0.00 0.00 0.00 58 1012.9
20260905212154 94 82 0.0 4.0 0.00 0.00 0.00 58 1012.8
20260905211434 95 231 2.0 8.0 0.00 0.00 0.00 58 1013.0
20260905210934 95 257 2.0 8.0 0.00 0.00 0.00 58 1013.0
20260905210434 95 82 2.0 6.0 0.00 0.00 0.00 56 1013.1
20260905205935 95 193 3.0 7.0 0.00 0.00 0.00 52 1013.3
20260905205435 94 289 5.0 13.0 0.00 0.00 0.00 52 1013.3
20260905204931 96 305 3.0 13.0 0.00 0.00 0.00 54 1013.2
20260905204430 98 297 1.0 7.0 0.00 0.00 0.00 54 1013.1
20260905203929 99 339 2.0 6.0 0.00 0.00 0.00 53 1013.0
20260905203431 99 359 2.0 9.0 0.00 0.00 0.00 53 1013.0
20260905202931 100 1 2.0 9.0 0.00 0.00 0.00 52 1013.0
20260905202431 100 10 2.0 7.0 0.00 0.00 0.00 51 1013.0
20260905201929 99 253 2.0 7.0 0.00 0.00 0.00 51 1013.0
20260905201658 98 290 1.0 6.0 0.00 0.00 0.00 52 1013.1
20260905201154 98 3 1.0 6.0 0.00 0.00 0.00 52 1013.3
20260905200428 98 21 1.0 7.0 0.00 0.00 0.00 52 1013.4
20260905195933 99 8 2.0 8.0 0.00 0.00 0.00 51 1013.5
20260905195645 99 352 2.0 8.0 0.00 0.00 0.00 49 1013.5
20260905195601 99 6 3.0 8.0 0.00 0.00 0.00 50 1013.5
20260905194427 99 324 3.0 8.0 0.00 0.00 0.00 49 1013.4
20260905193928 99 12 3.0 8.0 0.00 0.00 0.00 51 1013.5
20260905193429 98 303 2.0 7.0 0.00 0.00 0.00 51 1013.5
20260905192928 98 10 1.0 6.0 0.00 0.00 0.00 51 1013.5
20260905192422 99 60 2.0 5.0 0.00 0.00 0.00 51 1013.6
20260905191916 100 93 2.0 7.0 0.00 0.00 0.00 49 1013.4
20260905191410 100 241 3.0 9.0 0.00 0.00 0.00 49 1013.5
20260905190905 100 339 3.0 9.0 0.00 0.00 0.00 49 1013.5
20260905190358 100 6 1.0 8.0 0.00 0.00 0.00 50 1013.6
20260905185852 100 96 1.0 6.0 0.00 0.00 0.00 48 1013.6
20260905185405 100 274 2.0 7.0 0.00 0.00 0.00 49 1013.7
20260905184853 99 35 3.0 7.0 0.00 0.00 0.00 49 1013.8
20260905184352 99 314 2.0 7.0 0.00 0.00 0.00 50 1013.8
20260905183853 99 69 1.0 5.0 0.00 0.00 0.00 50 1013.9
20260905183353 99 13 2.0 9.0 0.00 0.00 0.00 50 1014.0
20260905182854 99 359 3.0 9.0 0.00 0.00 0.00 50 1014.0
20260905182356 99 65 3.0 10.0 0.00 0.00 0.00 51 1014.1
20260905181852 98 314 3.0 10.0 0.00 0.00 0.00 50 1014.1
20260905181351 98 324 4.0 10.0 0.00 0.00 0.00 50 1014.1
20260905180853 98 282 5.0 10.0 0.00 0.00 0.00 49 1014.2
20260905180352 98 301 5.0 11.0 0.00 0.00 0.00 50 1014.3
20260905175852 98 314 4.0 11.0 0.00 0.00 0.00 50 1014.3
20260905175609 98 30 3.0 10.0 0.00 0.00 0.00 51 1014.3
20260905174851 98 346 4.0 8.0 0.00 0.00 0.00 50 1014.2
20260905174351 99 48 4.0 10.0 0.00 0.00 0.00 52 1014.3
20260905173857 98 289 3.0 10.0 0.00 0.00 0.00 51 1014.4
20260905173849 98 284 3.0 10.0 0.00 0.00 0.00 52 1014.4
20260905172845 98 309 4.0 10.0 0.00 0.00 0.00 51 1014.3
20260905172341 98 302 4.0 8.0 0.00 0.00 0.00 51 1014.5
20260905171842 98 342 4.0 8.0 0.00 0.00 0.00 52 1014.5
20260905171341 97 306 3.0 8.0 0.00 0.00 0.00 51 1014.6
20260905170847 97 20 3.0 9.0 0.00 0.00 0.00 54 1014.5
20260905170604 98 39 3.0 9.0 0.00 0.00 0.00 54 1014.7
20260905165841 98 33 3.0 8.0 0.00 0.00 0.00 54 1014.7
20260905165341 98 12 3.0 8.0 0.00 0.00 0.00 56 1014.7
20260905164841 97 130 2.0 7.0 0.00 0.00 0.00 55 1014.7
20260905164350 96 5 2.0 6.0 0.00 0.00 0.00 57 1014.8
20260905164340 97 61 1.0 6.0 0.00 0.00 0.00 55 1014.8
20260905163339 96 62 3.0 8.0 0.00 0.00 0.00 57 1014.8
20260905162839 96 299 3.0 8.0 0.00 0.00 0.00 57 1014.9
20260905162341 96 256 1.0 4.0 0.00 0.00 0.00 59 1014.9
20260905161839 95 353 1.0 4.0 0.00 0.00 0.00 60 1014.9
20260905161340 95 17 0.0 8.0 0.00 0.00 0.00 61 1015.1
20260905160854 94 91 1.0 8.0 0.00 0.00 0.00 60 1015.0
20260905160340 94 264 3.0 8.0 0.00 0.00 0.00 61 1015.0
20260905155839 94 287 2.0 8.0 0.00 0.00 0.00 61 1015.0
20260905155339 94 343 1.0 4.0 0.00 0.00 0.00 61 1015.1
20260905154839 94 324 1.0 5.0 0.00 0.00 0.00 61 1015.2
20260905154339 94 20 1.0 5.0 0.00 0.00 0.00 61 1015.3
20260905153840 93 305 1.0 4.0 0.00 0.00 0.00 63 1015.3
20260905153339 93 263 1.0 4.0 0.00 0.00 0.00 64 1015.2
20260905153102 93 245 1.0 4.0 0.00 0.00 0.00 63 1015.2
20260905152339 92 59 1.0 4.0 0.00 0.00 0.00 63 1015.2
20260905151845 92 324 1.0 6.0 0.00 0.00 0.00 65 1015.3
20260905151339 91 51 1.0 6.0 0.00 0.00 0.00 64 1015.3
20260905150840 91 353 1.0 7.0 0.00 0.00 0.00 65 1015.2
20260905150339 91 74 1.0 7.0 0.00 0.00 0.00 65 1015.1
20260905150056 90 355 1.0 4.0 0.00 0.00 0.00 67 1015.0
20260905145605 90 14 1.0 4.0 0.00 0.00 0.00 67 1015.1
20260905144839 89 295 1.0 4.0 0.00 0.00 0.00 68 1015.2
20260905144338 89 355 1.0 6.0 0.00 0.00 0.00 69 1015.0
20260905143838 89 246 1.0 6.0 0.00 0.00 0.00 69 1015.0
20260905143339 88 314 2.0 6.0 0.00 0.00 0.00 69 1015.0
20260905142839 88 261 2.0 6.0 0.00 0.00 0.00 70 1015.0
20260905142338 88 255 2.0 6.0 0.00 0.00 0.00 70 1015.0
20260905141838 88 332 3.0 8.0 0.00 0.00 0.00 69 1015.0
20260905141338 87 236 3.0 8.0 0.00 0.00 0.00 70 1014.9
20260905140833 87 336 2.0 8.0 0.00 0.00 0.00 71 1014.9
20260905140326 87 336 3.0 4.0 0.00 0.00 0.00 72 1015.0
20260905140045 86 345 3.0 6.0 0.00 0.00 0.00 72 1015.0
20260905135314 86 347 2.0 6.0 0.00 0.00 0.00 72 1015.0
20260905134809 85 285 2.0 6.0 0.00 0.00 0.00 72 1015.0
20260905134303 85 293 2.0 6.0 0.00 0.00 0.00 74 1015.0
20260905133756 84 323 2.0 7.0 0.00 0.00 0.00 75 1014.9
20260905133250 83 296 2.0 7.0 0.00 0.00 0.00 76 1015.0
20260905132744 82 275 0.0 4.0 0.00 0.00 0.00 78 1015.0
20260905132239 82 247 0.0 0.0 0.00 0.00 0.00 80 1015.0
20260905131733 81 284 0.0 0.0 0.00 0.00 0.00 82 1015.0
20260905131227 80 218 0.0 0.0 0.00 0.00 0.00 83 1015.0
20260905130721 79 218 0.0 1.0 0.00 0.00 0.00 84 1015.0
20260905130228 79 218 1.0 2.0 0.00 0.00 0.00 84 1015.0
20260905125709 79 218 0.0 2.0 0.00 0.00 0.00 86 1015.0
20260905125202 78 88 0.0 0.0 0.00 0.00 0.00 87 1014.9
20260905124657 78 88 0.0 0.0 0.00 0.00 0.00 88 1014.9
20260905124414 77 88 0.0 0.0 0.00 0.00 0.00 88 1014.8
20260905123909 77 88 0.0 0.0 0.00 0.00 0.00 88 1014.9
20260905123139 76 88 0.0 0.0 0.00 0.00 0.00 88 1014.7
20260905122853 76 88 0.0 0.0 0.00 0.00 0.00 88 1014.8
20260905122127 76 88 0.0 0.0 0.00 0.00 0.00 88 1014.7
20260905121633 76 88 0.0 0.0 0.00 0.00 0.00 88 1014.7
20260905121114 76 88 0.0 0.0 0.00 0.00 0.00 87 1014.8
20260905120609 76 88 0.0 0.0 0.00 0.00 0.00 87 1014.7
20260905120333 76 88 0.0 0.0 0.00 0.00 0.00 87 1014.5
20260905115557 76 88 0.0 0.0 0.00 0.00 0.00 87 1014.4
20260905115537 76 88 0.0 0.0 0.00 0.00 0.00 86 1014.4
20260905114810 76 88 0.0 0.0 0.00 0.00 0.00 86 1014.3
20260905114259 76 88 0.0 0.0 0.00 0.00 0.00 86 1014.3
20260905113532 76 88 0.0 0.0 0.00 0.00 0.00 86 1014.2
20260905113031 76 49 0.0 0.0 0.00 0.00 0.00 86 1014.1
20260905112524 77 49 0.0 0.0 0.00 0.00 0.00 85 1014.1
20260905112024 77 49 0.0 0.0 0.00 0.00 0.00 85 1014.1
20260905111743 77 49 0.0 0.0 0.00 0.00 0.00 85 1014.1
20260905111248 77 49 0.0 0.0 0.00 0.00 0.00 84 1014.0
20260905110521 77 49 0.0 0.0 0.00 0.00 0.00 83 1014.0
20260905110242 77 49 0.0 0.0 0.00 0.00 0.00 83 1014.0
20260905105518 78 49 0.0 0.0 0.00 0.00 0.00 83 1014.1
20260905105016 78 49 0.0 0.0 0.00 0.00 0.00 83 1014.0
20260905104512 78 49 0.0 0.0 0.00 0.00 0.00 82 1013.9
20260905104010 78 49 0.0 0.0 0.00 0.00 0.00 82 1014.0